Regional Weather Roundup
Issued by NWS

Home | Current Version | Previous Version | Graphics & Text | Print | Product List | Glossary On
Versions: 1 2 3 4 5 6 7 8 9 10 11 12 13 14 15 16 17 18 19 20 21 22 23 24 25 26 27 28 29 30 31 32 33 34 35 36 37 38 39 40 41 42 43 44 45 46 47 48 49 50
895
ASUS43 KMPX 240201
RWRMN
WEATHER ROUNDUP FOR MINNESOTA
NATIONAL WEATHER SERVICE TWIN CITIES/CHANHASSEN MN
900 PM CDT TUE MAY 23 2017


NOTE: "FAIR" INDICATES FEW OR NO CLOUDS BELOW 12,000 FEET WITH NO
SIGNIFICANT WEATHER AND/OR OBSTRUCTIONS TO VISIBILITY. N/A MEANS
CURRENT SKY AND/OR WEATHER CONDITIONS ARE NOT AVAILABLE.

MNZ060>063-068>070-240300-
   Twin Cities Metro

CITY           SKY/WX    TMP DP  RH WIND       PRES   REMARKS
TWIN CITIES    MOCLDY    58  43  57 N10G21    29.81R
ST PAUL        CLOUDY    57  46  66 N10       29.81S
CRYSTAL        CLOUDY    56  41  57 NE12G20   29.81R
BLAINE         PTCLDY    57  45  62 NE10      29.82R
LAKEVILLE      CLOUDY    55  46  71 N12       29.80S
EDEN PRAIRIE   CLOUDY    56  47  71 N8        29.80R
SOUTH ST PAUL  CLOUDY    57  46  68 NE5       29.80S
LAKE ELMO      CLOUDY    55  46  71 NE8G16    29.82S
$$
MNZ001>005-007-008-013>017-022>024-027-028-240300-
   Northwest Minnesota

CITY           SKY/WX    TMP DP  RH WIND       PRES   REMARKS
BEMIDJI        CLEAR     49  42  76 N7        29.93S
HALLOCK        PTCLDY    57  43  58 SE8       29.94S
ROSEAU         CLEAR     57  45  62 CALM      29.95R
WARROAD        CLEAR     55  45  67 SE3       29.95S
CROOKSTON      CLEAR     54  45  71 CALM      29.96S
FOSSTON        CLEAR     50  46  87 NE6       29.95S
DETROIT LAKES  CLEAR     52  43  71 NE7       29.93S
MOORHEAD       CLOUDY    54  45  71 NE10      29.94S
PARK RAPIDS    CLOUDY    53  41  63 NE5       29.91F
MAHNOMEN       MOCLDY    51  43  75 NE9       29.94S
$$
MNZ006-009>011-018-025>026-240300-
   North Central Minnesota

CITY           SKY/WX    TMP DP  RH WIND       PRES   REMARKS
BAUDETTE       PTCLDY    53  42  66 CALM      29.94S
FLAG ISLAND    CLEAR     55  45  67 SW6       29.92S
INTL FALLS     CLEAR     51  43  74 NE3       29.93S
WASKISH        PTCLDY    54  43  66 CALM      29.94S
BIG FORK       CLEAR     52  43  71 CALM      29.92S
LONGVILLE      CLOUDY    52  45  76 NE6       29.91R
GRAND RAPIDS   CLOUDY    52  44  74 N5        29.92S
CRANE LAKE     CLOUDY    46  45  93 CALM      29.94S
ORR            PTCLDY    50  39  66 CALM      29.90S
COOK           CLOUDY    52  43  71 CALM      29.92S
WALKER         CLOUDY    51  43  76 N7        29.92S
$$
MNZ012-019>021-037-240300-
   Northeast Minnesota

CITY           SKY/WX    TMP DP  RH WIND       PRES   REMARKS
DULUTH         CLOUDY    48  45  89 E10       29.89S
ELY            CLOUDY    52  41  66 CALM      29.90S
HIBBING        CLOUDY    51  42  71 NE6       29.90S
EVELETH        CLOUDY    53  42  66 NE5       29.91S
DULUTH HARBOR  CLOUDY    45  43  93 N14       29.91S
TWO HARBORS    CLOUDY    50  45  81 CALM      29.89S
SILVER BAY     CLOUDY    48  46  93 CALM      29.89S FOG
GRAND MARAIS     N/A     44  43  96 CALM      29.91S
G MARAIS ARPRT CLOUDY    45  39  81 CALM      29.91S
$$
MNZ029>031-032-039>041-046>048-054>057-064-240300-
   West Central Minnesota

CITY           SKY/WX    TMP DP  RH WIND       PRES   REMARKS
FERGUS FALLS   CLEAR     52  43  71 NE5       29.91S
WHEATON        PTCLDY    54  45  71 N10       29.93S
MORRIS         PTCLDY    54  46  76 N13       29.89S
ALEXANDRIA     MOCLDY    52  46  80 N12       29.90S
ELBOW LAKE     FAIR      52  45  77 NE10      29.91S
WADENA         MOCLDY    50  45  81 N5        29.91S
GLENWOOD       PTCLDY    52  46  82 N10       29.89R
APPLETON       CLOUDY    55  46  71 N10       29.88S
BENSON         MOCLDY    55  46  71 NE13      29.89S
ORTONVILLE     CLOUDY    54  46  76 N14       29.90S
MADISON        CLOUDY    57  48  72 N9        29.89R
WILLMAR        MOCLDY    55  46  71 NE8       29.87S
$$
MNZ033>034-036-042>043-049>051-058-059-240300-
   Central Minnesota

CITY           SKY/WX    TMP DP  RH WIND       PRES   REMARKS
ST CLOUD       CLOUDY    55  46  71 N7        29.85R
SAUK CENTRE    CLOUDY    53  45  74 N15       29.88S
PAYNESVILLE    PTCLDY    53  45  74 N7        29.86S
AITKIN         CLOUDY    52  46  82 N3        29.88S
PINE RIVER     CLOUDY    52  46  82 N6        29.93S
BRAINERD       LGT RAIN  51  48  89 N8        29.89S
STAPLES        CLOUDY    52  45  76 N7        29.90S
LONG PRAIRIE   CLOUDY    52  45  76 NW14      29.89S
LITTLE FALLS   CLOUDY    52  45  76 CALM      29.88S
LITCHFIELD     MOCLDY    54  48  82 N5        29.85S
BUFFALO        MOCLDY    55  46  69 N7        29.84S
MAPLE LAKE     CLEAR     54  47  78 N6        29.85S
HUTCHINSON     CLEAR     55  47  75 N5        29.85R
$$
MNZ037-044-045-052-053-240300-
   East Central Minnesota

CITY           SKY/WX    TMP DP  RH WIND       PRES   REMARKS
PRINCETON      CLEAR     54  46  76 N8        29.85R
MORA           CLEAR     52  41  66 CALM      29.87R
CAMBRIDGE      CLEAR     57  43  58 N6        29.83R
RUSH CITY      MOCLDY    52  43  72 N6        29.85R
MOOSE LAKE     PTCLDY    46  43  87 NE7       29.87S
HINCKLEY       FAIR      50  45  81 NE10G17   29.86S
CLOQUET        CLOUDY    48  43  81 E6        29.89S
MCGREGOR       CLOUDY    50  46  87 E5        29.89S
$$
MNZ071>073-080-081-089-090-097-098-240300-
   Southwest Minnesota

CITY           SKY/WX    TMP DP  RH WIND       PRES   REMARKS
MONTEVIDEO     CLOUDY    52  48  87 VRB5      29.87S
CANBY          CLOUDY    53  49  85 CALM      29.90R
MARSHALL       CLOUDY    53  47  79 N7        29.87R
REDWOOD FALLS  MOCLDY    54  43  66 N7        29.84R
OLIVIA         CLOUDY    54  46  76 N6        29.84S
PIPESTONE      CLOUDY    52  43  71 N8        29.87S
WINDOM         RAIN      50  46  87 N8        29.84R
WORTHINGTON    MOCLDY    50  47  89 N5        29.85S
JACKSON        LGT SNOW  50  46  87 N6        29.83S
TRACY          PTCLDY    52  47  82 N8        29.86S
SLAYTON        CLEAR     49  47  90 NW9       29.86S
$$
MNZ065>067-074>077-082>085-091>093-240300-
   South Central Minnesota

CITY           SKY/WX    TMP DP  RH WIND       PRES   REMARKS
MANKATO        CLOUDY    53  50  89 NW8       29.81S
NEW ULM        PTCLDY    52  46  82 N5        29.82S
ST JAMES       CLOUDY    52  48  87 NW7       29.83S
FAIRMONT       LGT RAIN  52  47  83 N13       29.82R
GLENCOE        MOCLDY    55  50  81 N7        29.82S
FARIBAULT      CLOUDY    55  48  76 N3        29.80S
OWATONNA       DRIZZLE   54  48  82 NW5       29.79S
WASECA         CLOUDY    52  48  87 NW6       29.81R
ALBERT LEA     CLOUDY    52  52 100 N5        29.78S
$$
MNZ078>079-086>088-094>096-240300-
   Southeast Minnesota

CITY           SKY/WX    TMP DP  RH WIND       PRES   REMARKS
ROCHESTER      CLOUDY    51  48  89 N12       29.77S
RED WING       LGT RAIN  55  46  71 N7        29.77F
STANTON        CLOUDY    56  49  79 N6        29.78S
DODGE CENTER   CLOUDY    52  48  87 N6        29.78R
WINONA         CLOUDY    55  48  76 N3        29.76R
AUSTIN         CLOUDY    52  46  82 N5        29.76S
PRESTON        CLOUDY    51  47  89 N7        29.75S
$$
ABBREVIATIONS USED IN REMARKS
   TC - TEMPERATURES IN CELSIUS
  WCI - WIND CHILL INDEX
   HX - HEAT INDEX
  VSB - VISIBILITY
$$




USA.gov is the U.S. government's official web portal to all federal, state and local government web resources and services.